Change the Weather History Date:

Wednesday, June 4, 2014

  Actual Average Record
Temperature  
Mean Temperature 66 °F 60 °F  
Max Temperature 80 °F 74 °F 99 °F (2007)
Min Temperature 52 °F 47 °F 34 °F (1962)
Degree Days  
Heating Degree Days 0 6  
Month to date heating degree days 4 25  
Since 1 June heating degree days 4 25  
Since 1 July heating degree days 6118 6552  
Cooling Degree Days 1 1  
Month to date cooling degree days 5 4  
Year to date cooling degree days 15 17  
Since 1 June cooling degree days 5 4  
Growing Degree Days 16 (Base 50)    
Moisture  
Dew Point 29 °F    
Average Humidity 32    
Maximum Humidity 55    
Minimum Humidity 8    
Precipitation  
Precipitation 0.00 in 0.05 in 0.45 in (1963)
Month to date precipitation T 0.19  
Year to date precipitation 4.68 5.79  
Sea Level Pressure  
Sea Level Pressure 29.89 in    
Wind  
Wind Speed 12 mph (SW)    
Max Wind Speed 24 mph    
Max Gust Speed 32 mph    
Visibility 10 miles    
Events      
T = Trace of Precipitation, MM = Missing Value Source: NWS Daily Summary

Daily Weather History Graph

Daily Weather History Graph

Search for Another Location

Airport or City:

Trip Planner

Search our weather history database for the weather conditions in past years. The results will help you decide how hot, cold, wet, or windy it might be!

Date:

Astronomy

Jun. 04, 2014 Rise Set
Actual Time 6:01 AM MDT 9:11 PM MDT
Civil Twilight 5:26 AM MDT 9:46 PM MDT
Nautical Twilight 4:42 AM MDT 10:30 PM MDT
Astronomical Twilight 3:48 AM MDT 11:24 PM MDT
Moon 12:30 PM MDT (6/4) 1:06 AM MDT (6/4)
Length of Visible Light 16h 19m
Length of Day
15h 10m
Waxing Crescent, 39% of the Moon is Illuminated
Jun 4
Waxing Crescent
Jun 5
First Quarter
Jun 12
Full
Jun 19
Last Quarter
Jun 27
New

Hourly Weather History & Observations

Time (MDT) Temp. Dew Point Humidity Pressure Visibility Wind Dir Wind Speed Gust Speed Precip Events Conditions
12:53 AM 62.1 °F 37.9 °F 41% 29.83 in 10.0 mi South 4.6 mph - N/A   Clear
1:53 AM 60.1 °F 37.9 °F 44% 29.84 in 10.0 mi SSE 4.6 mph - N/A   Clear
2:53 AM 57.0 °F 37.9 °F 49% 29.85 in 10.0 mi SSE 4.6 mph - N/A   Clear
3:53 AM 57.0 °F 37.9 °F 49% 29.86 in 10.0 mi SSE 5.8 mph - N/A   Clear
4:53 AM 55.9 °F 37.9 °F 51% 29.86 in 10.0 mi South 6.9 mph - N/A   Clear
5:53 AM 53.1 °F 37.9 °F 57% 29.88 in 10.0 mi South 6.9 mph - N/A   Clear
6:53 AM 53.1 °F 37.9 °F 57% 29.91 in 10.0 mi South 5.8 mph - N/A   Clear
7:53 AM 55.9 °F 39.9 °F 55% 29.92 in 10.0 mi SSW 9.2 mph - N/A   Clear
8:53 AM 60.1 °F 37.9 °F 44% 29.94 in 10.0 mi SW 15.0 mph - N/A   Clear
9:53 AM 64.0 °F 37.9 °F 38% 29.94 in 10.0 mi SSW 13.8 mph - N/A   Clear
10:53 AM 69.1 °F 37.9 °F 32% 29.94 in 10.0 mi SW 17.3 mph 25.3 mph N/A   Clear
11:53 AM 73.0 °F 34.0 °F 24% 29.93 in 10.0 mi West 17.3 mph 26.5 mph N/A   Clear
12:53 PM 75.9 °F 27.0 °F 16% 29.92 in 10.0 mi West 18.4 mph 26.5 mph N/A   Clear
1:53 PM 77.0 °F 21.0 °F 12% 29.91 in 10.0 mi WSW 19.6 mph 27.6 mph N/A   Clear
2:53 PM 78.1 °F 19.9 °F 11% 29.90 in 10.0 mi West 18.4 mph 29.9 mph N/A   Clear
3:53 PM 79.0 °F 16.0 °F 9% 29.88 in 10.0 mi West 21.9 mph 26.5 mph N/A   Clear
4:53 PM 79.0 °F 14.0 °F 9% 29.88 in 10.0 mi West 17.3 mph - N/A   Clear
5:53 PM 78.1 °F 12.9 °F 8% 29.87 in 10.0 mi WSW 20.7 mph 27.6 mph N/A   Clear
6:53 PM 77.0 °F 12.9 °F 9% 29.87 in 10.0 mi West 17.3 mph - N/A   Clear
7:53 PM 73.9 °F 21.0 °F 14% 29.87 in 10.0 mi West 15.0 mph - N/A   Clear
9:53 PM 62.1 °F 25.0 °F 24% 29.89 in 10.0 mi WSW 8.1 mph - N/A   Clear
10:53 PM 61.0 °F 26.1 °F 26% 29.89 in 10.0 mi SW 6.9 mph - N/A   Clear
11:53 PM 60.1 °F 26.1 °F 27% 29.88 in 10.0 mi SW 9.2 mph - N/A   Clear